| time (UTC) | temp F | wind direction | speed MPH | gust MPH | rain 1hr in | rain 24hr in | rain mn in | humidity % | barometer mb |
| 20260903093543 | 76 | 164 | 0.0 | 2.0 | 0.00 | 0.00 | 0.00 | 42 | 1014.3 |
| 20260903093107 | 76 | 202 | 0.0 | 2.0 | 0.00 | 0.00 | 0.00 | 42 | 1014.3 |
| 20260903092540 | 77 | 0 | 0.0 | 2.0 | 0.00 | 0.00 | 0.00 | 42 | 1014.3 |
| 20260903092040 | 77 | 0 | 0.0 | 2.0 | 0.00 | 0.00 | 0.00 | 41 | 1014.3 |
| 20260903091603 | 77 | 0 | 0.0 | 1.0 | 0.00 | 0.00 | 0.00 | 40 | 1014.3 |
| 20260903091043 | 78 | 0 | 0.0 | 2.0 | 0.00 | 0.00 | 0.00 | 40 | 1014.2 |
| 20260903090540 | 78 | 0 | 0.0 | 2.0 | 0.00 | 0.00 | 0.00 | 40 | 1014.1 |
| 20260903090106 | 78 | 0 | 0.0 | 2.0 | 0.00 | 0.00 | 0.00 | 39 | 1014.1 |
| 20260903085541 | 78 | 0 | 0.0 | 2.0 | 0.00 | 0.00 | 0.00 | 38 | 1014.0 |
| 20260903085042 | 79 | 0 | 0.0 | 2.0 | 0.00 | 0.00 | 0.00 | 38 | 1014.1 |
| 20260903084601 | 79 | 0 | 0.0 | 3.0 | 0.00 | 0.00 | 0.00 | 37 | 1014.2 |
| 20260903084039 | 79 | 260 | 0.0 | 3.0 | 0.00 | 0.00 | 0.00 | 36 | 1014.2 |
| 20260903083543 | 79 | 0 | 0.0 | 3.0 | 0.00 | 0.00 | 0.00 | 36 | 1014.2 |
| 20260903083110 | 79 | 0 | 0.0 | 3.0 | 0.00 | 0.00 | 0.00 | 37 | 1014.2 |
| 20260903082539 | 79 | 209 | 1.0 | 4.0 | 0.00 | 0.00 | 0.00 | 36 | 1014.2 |
| 20260903082040 | 79 | 202 | 1.0 | 4.0 | 0.00 | 0.00 | 0.00 | 37 | 1014.3 |
| 20260903081558 | 79 | 0 | 0.0 | 4.0 | 0.00 | 0.00 | 0.00 | 37 | 1014.2 |
| 20260903081038 | 79 | 167 | 1.0 | 3.0 | 0.00 | 0.00 | 0.00 | 36 | 1014.1 |
| 20260903080543 | 79 | 186 | 1.0 | 5.0 | 0.00 | 0.00 | 0.00 | 36 | 1014.1 |
| 20260903080104 | 79 | 186 | 1.0 | 5.0 | 0.00 | 0.00 | 0.00 | 37 | 1014.1 |
| 20260903075543 | 80 | 248 | 1.0 | 5.0 | 0.00 | 0.00 | 0.00 | 36 | 1014.0 |
| 20260903075042 | 80 | 272 | 1.0 | 4.0 | 0.00 | 0.00 | 0.00 | 37 | 1014.1 |
| 20260903074610 | 80 | 180 | 1.0 | 4.0 | 0.00 | 0.00 | 0.00 | 37 | 1014.2 |
| 20260903074041 | 80 | 188 | 1.0 | 4.0 | 0.00 | 0.00 | 0.00 | 37 | 1014.3 |
| 20260903073543 | 80 | 0 | 0.0 | 4.0 | 0.00 | 0.00 | 0.00 | 36 | 1014.3 |
| 20260903073135 | 80 | 251 | 1.0 | 7.0 | 0.00 | 0.00 | 0.00 | 36 | 1014.6 |
| 20260903072540 | 80 | 240 | 3.0 | 7.0 | 0.00 | 0.00 | 0.00 | 36 | 1014.8 |
| 20260903072039 | 80 | 265 | 3.0 | 6.0 | 0.00 | 0.00 | 0.00 | 36 | 1014.7 |
| 20260903071621 | 80 | 249 | 3.0 | 8.0 | 0.00 | 0.00 | 0.00 | 36 | 1014.7 |
| 20260903071043 | 80 | 360 | 2.0 | 8.0 | 0.00 | 0.00 | 0.00 | 36 | 1014.7 |
| 20260903070543 | 80 | 360 | 2.0 | 5.0 | 0.00 | 0.00 | 0.00 | 36 | 1014.7 |
| 20260903070103 | 80 | 360 | 1.0 | 6.0 | 0.00 | 0.00 | 0.00 | 36 | 1014.6 |
| 20260903065540 | 80 | 360 | 2.0 | 9.0 | 0.00 | 0.00 | 0.00 | 36 | 1014.7 |
| 20260903065043 | 81 | 360 | 2.0 | 9.0 | 0.00 | 0.00 | 0.00 | 35 | 1014.6 |
| 20260903064600 | 81 | 360 | 3.0 | 6.0 | 0.00 | 0.00 | 0.00 | 35 | 1014.7 |
| 20260903064042 | 81 | 0 | 0.0 | 8.0 | 0.00 | 0.00 | 0.00 | 35 | 1014.7 |
| 20260903063542 | 81 | 360 | 1.0 | 9.0 | 0.00 | 0.00 | 0.00 | 35 | 1014.7 |
| 20260903063104 | 81 | 360 | 3.0 | 9.0 | 0.00 | 0.00 | 0.00 | 34 | 1014.7 |
| 20260903062543 | 82 | 360 | 2.0 | 5.0 | 0.00 | 0.00 | 0.00 | 34 | 1014.8 |
| 20260903062044 | 82 | 0 | 1.0 | 9.0 | 0.00 | 0.00 | 0.00 | 35 | 1014.8 |
| 20260903061601 | 82 | 360 | 4.0 | 9.0 | 0.00 | 0.00 | 0.00 | 35 | 1014.9 |
| 20260903061042 | 82 | 360 | 3.0 | 8.0 | 0.00 | 0.00 | 0.00 | 34 | 1015.2 |
| 20260903060540 | 83 | 360 | 1.0 | 6.0 | 0.00 | 0.00 | 0.00 | 34 | 1015.2 |
| 20260903060154 | 83 | 360 | 1.0 | 6.0 | 0.00 | 0.00 | 0.00 | 34 | 1015.0 |
| 20260903055542 | 82 | 360 | 2.0 | 6.0 | 0.00 | 0.00 | 0.00 | 34 | 1015.1 |
| 20260903055039 | 82 | 0 | 2.0 | 8.0 | 0.00 | 0.00 | 0.00 | 34 | 1015.2 |
| 20260903054607 | 82 | 360 | 4.0 | 8.0 | 0.00 | 0.00 | 0.00 | 34 | 1015.2 |
| 20260903054042 | 82 | 360 | 2.0 | 6.0 | 0.00 | 0.00 | 0.00 | 35 | 1015.3 |
| 20260903053544 | 82 | 360 | 1.0 | 4.0 | 0.00 | 0.00 | 0.00 | 35 | 1015.2 |
| 20260903053132 | 81 | 360 | 1.0 | 5.0 | 0.00 | 0.00 | 0.00 | 35 | 1015.3 |
| 20260903052544 | 81 | 360 | 1.0 | 5.0 | 0.00 | 0.00 | 0.00 | 36 | 1015.3 |
| 20260903052042 | 81 | 360 | 2.0 | 5.0 | 0.00 | 0.00 | 0.00 | 36 | 1015.4 |
| 20260903051608 | 81 | 167 | 2.0 | 6.0 | 0.00 | 0.00 | 0.00 | 36 | 1015.4 |
| 20260903051042 | 81 | 360 | 2.0 | 6.0 | 0.00 | 0.00 | 0.00 | 36 | 1015.6 |
| 20260903050541 | 81 | 360 | 2.0 | 6.0 | 0.00 | 0.00 | 0.00 | 36 | 1015.5 |
| 20260903050134 | 82 | 360 | 2.0 | 5.0 | 0.00 | 0.00 | 0.00 | 35 | 1015.7 |
| 20260903045542 | 81 | 0 | 0.0 | 6.0 | 0.00 | 0.00 | 0.00 | 36 | 1015.7 |
| 20260903045041 | 81 | 0 | 3.0 | 6.0 | 0.00 | 0.00 | 0.00 | 36 | 1015.8 |
| 20260903044602 | 81 | 360 | 1.0 | 4.0 | 0.00 | 0.00 | 0.00 | 36 | 1015.8 |
| 20260903044044 | 80 | 360 | 1.0 | 4.0 | 0.00 | 0.00 | 0.00 | 37 | 1015.9 |
| 20260903043542 | 79 | 360 | 1.0 | 4.0 | 0.00 | 0.00 | 0.00 | 37 | 1016.0 |
| 20260903043054 | 79 | 360 | 2.0 | 5.0 | 0.00 | 0.00 | 0.00 | 37 | 1016.0 |
| 20260903042542 | 79 | 360 | 1.0 | 8.0 | 0.00 | 0.00 | 0.00 | 38 | 1016.2 |
| 20260903042042 | 80 | 360 | 2.0 | 8.0 | 0.00 | 0.00 | 0.00 | 37 | 1016.1 |
| 20260903041603 | 81 | 360 | 1.0 | 4.0 | 0.00 | 0.00 | 0.00 | 36 | 1016.2 |
| 20260903041042 | 81 | 360 | 0.0 | 4.0 | 0.00 | 0.00 | 0.00 | 37 | 1016.3 |
| 20260903040543 | 80 | 360 | 0.0 | 5.0 | 0.00 | 0.00 | 0.00 | 38 | 1016.2 |
| 20260903040106 | 79 | 360 | 1.0 | 5.0 | 0.00 | 0.00 | 0.00 | 38 | 1016.4 |
| 20260903035543 | 79 | 360 | 1.0 | 5.0 | 0.00 | 0.00 | 0.00 | 37 | 1016.4 |
| 20260903035041 | 79 | 360 | 1.0 | 5.0 | 0.00 | 0.00 | 0.00 | 39 | 1016.6 |
| 20260903034556 | 78 | 0 | 0.0 | 5.0 | 0.00 | 0.00 | 0.00 | 39 | 1016.6 |
| 20260903034044 | 78 | 360 | 1.0 | 5.0 | 0.00 | 0.00 | 0.00 | 40 | 1016.7 |
| 20260903033539 | 77 | 360 | 1.0 | 5.0 | 0.00 | 0.00 | 0.00 | 40 | 1016.8 |
| 20260903033052 | 77 | 360 | 2.0 | 5.0 | 0.00 | 0.00 | 0.00 | 40 | 1017.1 |
| 20260903032543 | 78 | 360 | 1.0 | 4.0 | 0.00 | 0.00 | 0.00 | 40 | 1017.2 |
| 20260903032042 | 78 | 360 | 1.0 | 5.0 | 0.00 | 0.00 | 0.00 | 41 | 1017.3 |
| 20260903031601 | 78 | 360 | 1.0 | 5.0 | 0.00 | 0.00 | 0.00 | 41 | 1017.3 |
| 20260903031042 | 78 | 360 | 1.0 | 6.0 | 0.00 | 0.00 | 0.00 | 41 | 1017.5 |
| 20260903030543 | 78 | 360 | 2.0 | 6.0 | 0.00 | 0.00 | 0.00 | 40 | 1017.6 |
| 20260903025540 | 77 | 173 | 1.0 | 4.0 | 0.00 | 0.00 | 0.00 | 42 | 1017.9 |
| 20260903025043 | 76 | 0 | 1.0 | 4.0 | 0.00 | 0.00 | 0.00 | 42 | 1018.1 |
| 20260903024553 | 76 | 121 | 1.0 | 4.0 | 0.00 | 0.00 | 0.00 | 43 | 1018.1 |
| 20260903024042 | 75 | 153 | 0.0 | 4.0 | 0.00 | 0.00 | 0.00 | 44 | 1018.2 |
| 20260903023540 | 75 | 184 | 1.0 | 6.0 | 0.00 | 0.00 | 0.00 | 46 | 1018.1 |
| 20260903023107 | 74 | 54 | 2.0 | 6.0 | 0.00 | 0.00 | 0.00 | 46 | 1018.2 |
| 20260903022541 | 74 | 0 | 2.0 | 7.0 | 0.00 | 0.00 | 0.00 | 46 | 1018.3 |
| 20260903022045 | 73 | 74 | 2.0 | 7.0 | 0.00 | 0.00 | 0.00 | 47 | 1018.4 |
| 20260903021606 | 73 | 76 | 2.0 | 6.0 | 0.00 | 0.00 | 0.00 | 47 | 1018.3 |
| 20260903021039 | 72 | 0 | 1.0 | 6.0 | 0.00 | 0.00 | 0.00 | 47 | 1018.5 |
| 20260903020543 | 72 | 113 | 1.0 | 4.0 | 0.00 | 0.00 | 0.00 | 48 | 1018.6 |
| 20260903020104 | 72 | 198 | 2.0 | 7.0 | 0.00 | 0.00 | 0.00 | 49 | 1018.6 |
| 20260903015541 | 71 | 125 | 2.0 | 7.0 | 0.00 | 0.00 | 0.00 | 50 | 1018.8 |
| 20260903015042 | 71 | 113 | 2.0 | 6.0 | 0.00 | 0.00 | 0.00 | 50 | 1019.0 |
| 20260903014605 | 70 | 111 | 1.0 | 6.0 | 0.00 | 0.00 | 0.00 | 51 | 1019.1 |
| 20260903014039 | 70 | 111 | 2.0 | 6.0 | 0.00 | 0.00 | 0.00 | 51 | 1019.2 |
| 20260903013543 | 70 | 133 | 1.0 | 6.0 | 0.00 | 0.00 | 0.00 | 52 | 1019.2 |
| 20260903013107 | 69 | 137 | 2.0 | 7.0 | 0.00 | 0.00 | 0.00 | 52 | 1019.4 |
| 20260903012542 | 68 | 82 | 1.0 | 7.0 | 0.00 | 0.00 | 0.00 | 54 | 1019.4 |
| 20260903012042 | 68 | 91 | 1.0 | 6.0 | 0.00 | 0.00 | 0.00 | 55 | 1019.4 |
| 20260903011601 | 68 | 91 | 2.0 | 6.0 | 0.00 | 0.00 | 0.00 | 55 | 1019.6 |
| 20260903011043 | 67 | 99 | 2.0 | 6.0 | 0.00 | 0.00 | 0.00 | 56 | 1019.7 |
| 20260903010544 | 66 | 0 | 2.0 | 6.0 | 0.00 | 0.00 | 0.00 | 57 | 1019.8 |
| 20260903010059 | 66 | 78 | 2.0 | 7.0 | 0.00 | 0.00 | 0.00 | 57 | 1019.8 |
| 20260903005541 | 66 | 109 | 3.0 | 7.0 | 0.00 | 0.00 | 0.00 | 59 | 1019.9 |
| 20260903005043 | 65 | 90 | 2.0 | 7.0 | 0.00 | 0.00 | 0.00 | 59 | 1019.9 |
| 20260903004554 | 65 | 83 | 3.0 | 7.0 | 0.00 | 0.00 | 0.00 | 60 | 1019.9 |
| 20260903004041 | 64 | 106 | 3.0 | 8.0 | 0.00 | 0.00 | 0.00 | 60 | 1020.0 |
| 20260903003544 | 64 | 89 | 3.0 | 8.0 | 0.00 | 0.00 | 0.00 | 61 | 1020.0 |
| 20260903003105 | 63 | 88 | 3.0 | 7.0 | 0.00 | 0.00 | 0.00 | 62 | 1020.0 |
| 20260903002543 | 63 | 134 | 3.0 | 8.0 | 0.00 | 0.00 | 0.00 | 62 | 1020.0 |
| 20260903002042 | 62 | 113 | 3.0 | 8.0 | 0.00 | 0.00 | 0.00 | 63 | 1020.0 |
| 20260903001614 | 62 | 94 | 4.0 | 8.0 | 0.00 | 0.00 | 0.00 | 63 | 1020.0 |
| 20260903001041 | 62 | 86 | 4.0 | 8.0 | 0.00 | 0.00 | 0.00 | 63 | 1020.0 |
| 20260903000541 | 62 | 360 | 3.0 | 8.0 | 0.00 | 0.00 | 0.00 | 64 | 1019.9 |
| 20260903000100 | 61 | 360 | 4.0 | 9.0 | 0.00 | 0.00 | 0.00 | 64 | 1019.9 |
| 20260902235540 | 61 | 360 | 4.0 | 9.0 | 0.00 | 0.00 | 0.00 | 65 | 1019.8 |
| 20260902235042 | 61 | 360 | 5.0 | 9.0 | 0.00 | 0.00 | 0.00 | 65 | 1019.9 |
| 20260902234621 | 61 | 360 | 3.0 | 9.0 | 0.00 | 0.00 | 0.00 | 66 | 1019.9 |
| 20260902234042 | 60 | 360 | 4.0 | 9.0 | 0.00 | 0.00 | 0.00 | 66 | 1019.9 |
| 20260902233542 | 60 | 360 | 3.0 | 9.0 | 0.00 | 0.00 | 0.00 | 67 | 1019.8 |
| 20260902233054 | 60 | 360 | 4.0 | 8.0 | 0.00 | 0.00 | 0.00 | 67 | 1019.8 |
| 20260902232542 | 59 | 360 | 4.0 | 8.0 | 0.00 | 0.00 | 0.00 | 68 | 1019.7 |
| 20260902232039 | 59 | 360 | 4.0 | 8.0 | 0.00 | 0.00 | 0.00 | 69 | 1019.7 |
| 20260902231609 | 59 | 360 | 3.0 | 8.0 | 0.00 | 0.00 | 0.00 | 69 | 1019.7 |
| 20260902231043 | 59 | 360 | 3.0 | 9.0 | 0.00 | 0.00 | 0.00 | 70 | 1019.7 |
| 20260902230541 | 58 | 360 | 3.0 | 9.0 | 0.00 | 0.00 | 0.00 | 71 | 1019.6 |
| 20260902230114 | 58 | 360 | 4.0 | 9.0 | 0.00 | 0.00 | 0.00 | 72 | 1019.6 |
| 20260902225541 | 57 | 360 | 4.0 | 8.0 | 0.00 | 0.00 | 0.00 | 73 | 1019.6 |
| 20260902225044 | 57 | 360 | 3.0 | 8.0 | 0.00 | 0.00 | 0.00 | 74 | 1019.8 |
| 20260902224603 | 56 | 360 | 3.0 | 6.0 | 0.00 | 0.00 | 0.00 | 74 | 1019.6 |
| 20260902224042 | 56 | 360 | 3.0 | 6.0 | 0.00 | 0.00 | 0.00 | 75 | 1019.7 |
| 20260902223539 | 56 | 360 | 4.0 | 8.0 | 0.00 | 0.00 | 0.00 | 76 | 1019.5 |
| 20260902223057 | 56 | 360 | 4.0 | 8.0 | 0.00 | 0.00 | 0.00 | 76 | 1019.5 |
| 20260902222539 | 55 | 360 | 3.0 | 6.0 | 0.00 | 0.00 | 0.00 | 77 | 1019.6 |
| 20260902222042 | 55 | 360 | 2.0 | 5.0 | 0.00 | 0.00 | 0.00 | 78 | 1019.6 |
| 20260902221601 | 55 | 360 | 3.0 | 5.0 | 0.00 | 0.00 | 0.00 | 78 | 1019.6 |
| 20260902221043 | 55 | 360 | 2.0 | 5.0 | 0.00 | 0.00 | 0.00 | 78 | 1019.6 |
| 20260902220546 | 54 | 0 | 1.0 | 4.0 | 0.00 | 0.00 | 0.00 | 79 | 1019.6 |
| 20260902220104 | 54 | 360 | 2.0 | 4.0 | 0.00 | 0.00 | 0.00 | 79 | 1019.6 |
| 20260902215541 | 54 | 0 | 1.0 | 3.0 | 0.00 | 0.00 | 0.00 | 79 | 1019.5 |
| 20260902215041 | 54 | 360 | 1.0 | 3.0 | 0.00 | 0.00 | 0.00 | 79 | 1019.5 |
| 20260902214610 | 54 | 360 | 1.0 | 2.0 | 0.00 | 0.00 | 0.00 | 79 | 1019.5 |
| 20260902214043 | 55 | 360 | 0.0 | 3.0 | 0.00 | 0.00 | 0.00 | 78 | 1019.4 |
| 20260902213542 | 55 | 0 | 1.0 | 3.0 | 0.00 | 0.00 | 0.00 | 78 | 1019.3 |
| 20260902213102 | 55 | 0 | 0.0 | 3.0 | 0.00 | 0.00 | 0.00 | 78 | 1019.2 |
| 20260902212542 | 55 | 360 | 0.0 | 3.0 | 0.00 | 0.00 | 0.00 | 78 | 1019.2 |
| 20260902212040 | 55 | 0 | 0.0 | 5.0 | 0.00 | 0.00 | 0.00 | 78 | 1019.1 |
| 20260902211559 | 55 | 360 | 0.0 | 5.0 | 0.00 | 0.00 | 0.00 | 77 | 1018.9 |
| 20260902211044 | 55 | 360 | 2.0 | 5.0 | 0.00 | 0.00 | 0.00 | 77 | 1019.0 |
| 20260902210543 | 55 | 0 | 1.0 | 4.0 | 0.00 | 0.00 | 0.00 | 77 | 1018.8 |
| 20260902210058 | 55 | 0 | 1.0 | 4.0 | 0.00 | 0.00 | 0.00 | 77 | 1018.6 |
| 20260902205541 | 55 | 360 | 2.0 | 4.0 | 0.00 | 0.00 | 0.00 | 78 | 1018.6 |
| 20260902205041 | 55 | 360 | 2.0 | 4.0 | 0.00 | 0.00 | 0.00 | 78 | 1018.5 |
| 20260902204632 | 56 | 360 | 2.0 | 4.0 | 0.00 | 0.00 | 0.00 | 77 | 1018.5 |
| 20260902204042 | 56 | 360 | 1.0 | 4.0 | 0.00 | 0.00 | 0.00 | 77 | 1018.4 |
| 20260902203545 | 56 | 360 | 2.0 | 4.0 | 0.00 | 0.00 | 0.00 | 77 | 1018.3 |
| 20260902203055 | 56 | 360 | 2.0 | 3.0 | 0.00 | 0.00 | 0.00 | 77 | 1018.3 |
| 20260902202539 | 56 | 360 | 1.0 | 3.0 | 0.00 | 0.00 | 0.00 | 76 | 1018.3 |
| 20260902202039 | 56 | 0 | 1.0 | 3.0 | 0.00 | 0.00 | 0.00 | 76 | 1018.3 |
| 20260902201603 | 56 | 360 | 1.0 | 3.0 | 0.00 | 0.00 | 0.00 | 76 | 1018.3 |
| 20260902201042 | 57 | 360 | 1.0 | 3.0 | 0.00 | 0.00 | 0.00 | 76 | 1018.3 |
| 20260902200540 | 57 | 360 | 0.0 | 3.0 | 0.00 | 0.00 | 0.00 | 76 | 1018.1 |
| 20260902200132 | 57 | 0 | 1.0 | 4.0 | 0.00 | 0.00 | 0.00 | 75 | 1018.1 |
| 20260902195541 | 57 | 360 | 1.0 | 4.0 | 0.00 | 0.00 | 0.00 | 76 | 1018.1 |
| 20260902195040 | 57 | 360 | 1.0 | 4.0 | 0.00 | 0.00 | 0.00 | 75 | 1018.2 |
| 20260902194557 | 57 | 0 | 1.0 | 3.0 | 0.00 | 0.00 | 0.00 | 75 | 1018.1 |
| 20260902194042 | 57 | 0 | 0.0 | 4.0 | 0.00 | 0.00 | 0.00 | 75 | 1018.1 |
| 20260902193542 | 58 | 360 | 0.0 | 4.0 | 0.00 | 0.00 | 0.00 | 75 | 1018.1 |
| 20260902193104 | 58 | 360 | 1.0 | 4.0 | 0.00 | 0.00 | 0.00 | 75 | 1018.0 |
| 20260902192538 | 57 | 360 | 1.0 | 4.0 | 0.00 | 0.00 | 0.00 | 75 | 1018.0 |
| 20260902192049 | 57 | 360 | 1.0 | 3.0 | 0.00 | 0.00 | 0.00 | 75 | 1018.1 |
| 20260902191600 | 57 | 0 | 0.0 | 3.0 | 0.00 | 0.00 | 0.00 | 75 | 1018.1 |
| 20260902191040 | 57 | 0 | 0.0 | 3.0 | 0.00 | 0.00 | 0.00 | 75 | 1018.0 |
| 20260902190541 | 57 | 360 | 1.0 | 2.0 | 0.00 | 0.00 | 0.00 | 75 | 1018.1 |
| 20260902185542 | 57 | 360 | 0.0 | 2.0 | 0.00 | 0.00 | 0.00 | 75 | 1018.2 |
| 20260902185043 | 57 | 360 | 0.0 | 2.0 | 0.00 | 0.00 | 0.00 | 75 | 1018.1 |
| 20260902184601 | 57 | 0 | 0.0 | 2.0 | 0.00 | 0.00 | 0.00 | 74 | 1018.2 |
| 20260902184039 | 58 | 0 | 0.0 | 2.0 | 0.00 | 0.00 | 0.00 | 74 | 1018.2 |
| 20260902183541 | 57 | 0 | 0.0 | 1.0 | 0.00 | 0.00 | 0.00 | 74 | 1018.2 |
| 20260902183105 | 58 | 0 | 0.0 | 1.0 | 0.00 | 0.00 | 0.00 | 73 | 1018.2 |
| 20260902182541 | 58 | 0 | 0.0 | 2.0 | 0.00 | 0.00 | 0.00 | 73 | 1018.2 |
| 20260902182043 | 58 | 0 | 0.0 | 2.0 | 0.00 | 0.00 | 0.00 | 73 | 1018.2 |
| 20260902181602 | 58 | 0 | 0.0 | 2.0 | 0.00 | 0.00 | 0.00 | 73 | 1018.2 |
| 20260902181039 | 58 | 0 | 0.0 | 1.0 | 0.00 | 0.00 | 0.00 | 72 | 1018.2 |
| 20260902180541 | 59 | 0 | 0.0 | 0.0 | 0.00 | 0.00 | 0.00 | 71 | 1018.2 |
| 20260902180108 | 59 | 0 | 0.0 | 0.0 | 0.00 | 0.00 | 0.00 | 71 | 1018.2 |
| 20260902175542 | 59 | 0 | 0.0 | 0.0 | 0.00 | 0.00 | 0.00 | 71 | 1018.3 |
| 20260902175040 | 59 | 0 | 0.0 | 0.0 | 0.00 | 0.00 | 0.00 | 70 | 1018.3 |
| 20260902174604 | 59 | 0 | 0.0 | 0.0 | 0.00 | 0.00 | 0.00 | 70 | 1018.3 |
| 20260902174045 | 59 | 0 | 0.0 | 0.0 | 0.00 | 0.00 | 0.00 | 70 | 1018.2 |
| 20260902173542 | 60 | 0 | 0.0 | 0.0 | 0.00 | 0.00 | 0.00 | 70 | 1018.3 |
| 20260902173106 | 60 | 0 | 0.0 | 2.0 | 0.00 | 0.00 | 0.00 | 69 | 1018.2 |
| 20260902172542 | 60 | 0 | 0.0 | 4.0 | 0.00 | 0.00 | 0.00 | 69 | 1018.2 |
| 20260902172042 | 60 | 0 | 0.0 | 4.0 | 0.00 | 0.00 | 0.00 | 69 | 1018.0 |
| 20260902171607 | 60 | 360 | 1.0 | 4.0 | 0.00 | 0.00 | 0.00 | 70 | 1017.9 |
| 20260902171044 | 60 | 360 | 0.0 | 3.0 | 0.00 | 0.00 | 0.00 | 69 | 1017.9 |
| 20260902170541 | 60 | 0 | 0.0 | 2.0 | 0.00 | 0.00 | 0.00 | 69 | 1018.0 |
| 20260902170108 | 60 | 0 | 0.0 | 1.0 | 0.00 | 0.00 | 0.00 | 69 | 1018.0 |
| 20260902165541 | 60 | 0 | 0.0 | 2.0 | 0.00 | 0.00 | 0.00 | 69 | 1018.1 |
| 20260902165040 | 60 | 0 | 0.0 | 2.0 | 0.00 | 0.00 | 0.00 | 69 | 1018.1 |
| 20260902164605 | 60 | 0 | 0.0 | 2.0 | 0.00 | 0.00 | 0.00 | 68 | 1018.2 |
| 20260902164040 | 60 | 0 | 0.0 | 2.0 | 0.00 | 0.00 | 0.00 | 68 | 1018.2 |
| 20260902163720 | 60 | 0 | 0.0 | 0.0 | 0.00 | 0.00 | 0.00 | 69 | 1018.2 |
| 20260902163101 | 60 | 0 | 0.0 | 2.0 | 0.00 | 0.00 | 0.00 | 69 | 1018.2 |
| 20260902162544 | 60 | 0 | 0.0 | 2.0 | 0.00 | 0.00 | 0.00 | 69 | 1018.3 |
| 20260902162041 | 60 | 0 | 0.0 | 2.0 | 0.00 | 0.00 | 0.00 | 69 | 1018.3 |
| 20260902161615 | 60 | 0 | 0.0 | 1.0 | 0.00 | 0.00 | 0.00 | 69 | 1018.4 |
| 20260902161041 | 60 | 0 | 0.0 | 0.0 | 0.00 | 0.00 | 0.00 | 70 | 1018.4 |
| 20260902160541 | 60 | 0 | 0.0 | 0.0 | 0.00 | 0.00 | 0.00 | 70 | 1018.4 |
| 20260902160055 | 60 | 0 | 0.0 | 0.0 | 0.00 | 0.00 | 0.00 | 69 | 1018.4 |
| 20260902155543 | 60 | 0 | 0.0 | 0.0 | 0.00 | 0.00 | 0.00 | 69 | 1018.5 |
| 20260902155041 | 60 | 0 | 0.0 | 0.0 | 0.00 | 0.00 | 0.00 | 68 | 1018.5 |
| 20260902154600 | 60 | 0 | 0.0 | 0.0 | 0.00 | 0.00 | 0.00 | 68 | 1018.6 |
| 20260902154042 | 60 | 0 | 0.0 | 0.0 | 0.00 | 0.00 | 0.00 | 68 | 1018.5 |
| 20260902153544 | 61 | 0 | 0.0 | 0.0 | 0.00 | 0.00 | 0.00 | 68 | 1018.5 |
| 20260902153057 | 61 | 0 | 0.0 | 0.0 | 0.00 | 0.00 | 0.00 | 67 | 1018.5 |
| 20260902152541 | 61 | 0 | 0.0 | 0.0 | 0.00 | 0.00 | 0.00 | 66 | 1018.5 |
| 20260902152043 | 61 | 0 | 0.0 | 0.0 | 0.00 | 0.00 | 0.00 | 66 | 1018.5 |
| 20260902151556 | 62 | 0 | 0.0 | 0.0 | 0.00 | 0.00 | 0.00 | 64 | 1018.6 |
| 20260902151043 | 62 | 0 | 0.0 | 0.0 | 0.00 | 0.00 | 0.00 | 63 | 1018.7 |
| 20260902150544 | 62 | 0 | 0.0 | 0.0 | 0.00 | 0.00 | 0.00 | 63 | 1018.6 |
| 20260902150103 | 63 | 0 | 0.0 | 0.0 | 0.00 | 0.00 | 0.00 | 61 | 1018.6 |
| 20260902145541 | 63 | 0 | 0.0 | 0.0 | 0.00 | 0.00 | 0.00 | 61 | 1018.6 |
| 20260902145044 | 64 | 0 | 0.0 | 1.0 | 0.00 | 0.00 | 0.00 | 61 | 1018.6 |
| 20260902144618 | 64 | 0 | 0.0 | 2.0 | 0.00 | 0.00 | 0.00 | 60 | 1018.7 |
| 20260902144043 | 64 | 0 | 0.0 | 2.0 | 0.00 | 0.00 | 0.00 | 60 | 1018.6 |
| 20260902143547 | 64 | 360 | 0.0 | 2.0 | 0.00 | 0.00 | 0.00 | 59 | 1018.6 |
| 20260902143102 | 64 | 360 | 0.0 | 1.0 | 0.00 | 0.00 | 0.00 | 59 | 1018.7 |
| 20260902142543 | 64 | 0 | 0.0 | 2.0 | 0.00 | 0.00 | 0.00 | 59 | 1018.6 |
| 20260902142041 | 65 | 0 | 0.0 | 2.0 | 0.00 | 0.00 | 0.00 | 58 | 1018.6 |
| 20260902141554 | 65 | 0 | 0.0 | 3.0 | 0.00 | 0.00 | 0.00 | 58 | 1018.6 |
| 20260902141049 | 65 | 360 | 0.0 | 5.0 | 0.00 | 0.00 | 0.00 | 59 | 1018.7 |
| 20260902140544 | 64 | 360 | 1.0 | 5.0 | 0.00 | 0.00 | 0.00 | 60 | 1018.6 |
| 20260902135544 | 64 | 360 | 0.0 | 2.0 | 0.00 | 0.00 | 0.00 | 61 | 1018.7 |
| 20260902135043 | 64 | 0 | 0.0 | 1.0 | 0.00 | 0.00 | 0.00 | 61 | 1018.8 |
| 20260902134602 | 64 | 0 | 0.0 | 0.0 | 0.00 | 0.00 | 0.00 | 62 | 1018.9 |
| 20260902134044 | 64 | 0 | 0.0 | 0.0 | 0.00 | 0.00 | 0.00 | 61 | 1018.8 |
| 20260902133543 | 64 | 0 | 0.0 | 0.0 | 0.00 | 0.00 | 0.00 | 61 | 1018.9 |
| 20260902133147 | 65 | 0 | 0.0 | 0.0 | 0.00 | 0.00 | 0.00 | 60 | 1018.9 |
| 20260902132541 | 65 | 0 | 0.0 | 0.0 | 0.00 | 0.00 | 0.00 | 60 | 1018.9 |
| 20260902132039 | 65 | 0 | 0.0 | 0.0 | 0.00 | 0.00 | 0.00 | 60 | 1019.0 |
| 20260902131602 | 65 | 0 | 0.0 | 0.0 | 0.00 | 0.00 | 0.00 | 60 | 1018.9 |
| 20260902131043 | 65 | 0 | 0.0 | 0.0 | 0.00 | 0.00 | 0.00 | 60 | 1019.1 |
| 20260902130541 | 66 | 0 | 0.0 | 0.0 | 0.00 | 0.00 | 0.00 | 59 | 1019.0 |
| 20260902125540 | 65 | 0 | 0.0 | 0.0 | 0.00 | 0.00 | 0.00 | 59 | 1019.0 |
| 20260902125041 | 65 | 0 | 0.0 | 0.0 | 0.00 | 0.00 | 0.00 | 57 | 1018.9 |
| 20260902124603 | 65 | 0 | 0.0 | 0.0 | 0.00 | 0.00 | 0.00 | 58 | 1018.9 |
| 20260902124045 | 66 | 0 | 0.0 | 0.0 | 0.00 | 0.00 | 0.00 | 60 | 1018.8 |
| 20260902123540 | 66 | 0 | 0.0 | 0.0 | 0.00 | 0.00 | 0.00 | 56 | 1018.9 |
| 20260902123100 | 66 | 0 | 0.0 | 0.0 | 0.00 | 0.00 | 0.00 | 55 | 1018.9 |
| 20260902122539 | 66 | 0 | 0.0 | 0.0 | 0.00 | 0.00 | 0.00 | 56 | 1018.8 |
| 20260902122041 | 67 | 0 | 0.0 | 0.0 | 0.00 | 0.00 | 0.00 | 55 | 1018.8 |
| 20260902121612 | 67 | 0 | 0.0 | 0.0 | 0.00 | 0.00 | 0.00 | 54 | 1018.7 |
| 20260902121043 | 67 | 0 | 0.0 | 0.0 | 0.00 | 0.00 | 0.00 | 54 | 1018.5 |
| 20260902120545 | 67 | 0 | 0.0 | 0.0 | 0.00 | 0.00 | 0.00 | 55 | 1018.6 |
| 20260902120110 | 67 | 0 | 0.0 | 0.0 | 0.00 | 0.00 | 0.00 | 55 | 1018.6 |
| 20260902115548 | 67 | 0 | 0.0 | 0.0 | 0.00 | 0.00 | 0.00 | 54 | 1018.6 |
| 20260902115040 | 67 | 0 | 0.0 | 0.0 | 0.00 | 0.00 | 0.00 | 55 | 1018.6 |
| 20260902114617 | 66 | 0 | 0.0 | 0.0 | 0.00 | 0.00 | 0.00 | 56 | 1018.5 |
| 20260902114042 | 66 | 0 | 0.0 | 0.0 | 0.00 | 0.00 | 0.00 | 56 | 1018.5 |
| 20260902113543 | 66 | 0 | 0.0 | 0.0 | 0.00 | 0.00 | 0.00 | 56 | 1018.6 |
| 20260902113100 | 66 | 0 | 0.0 | 0.0 | 0.00 | 0.00 | 0.00 | 56 | 1018.5 |
| 20260902112539 | 66 | 0 | 0.0 | 0.0 | 0.00 | 0.00 | 0.00 | 56 | 1018.5 |
| 20260902112042 | 67 | 0 | 0.0 | 0.0 | 0.00 | 0.00 | 0.00 | 57 | 1018.4 |
| 20260902111605 | 67 | 0 | 0.0 | 0.0 | 0.00 | 0.00 | 0.00 | 56 | 1018.4 |
| 20260902111043 | 67 | 0 | 0.0 | 0.0 | 0.00 | 0.00 | 0.00 | 54 | 1018.4 |
| 20260902110543 | 68 | 0 | 0.0 | 0.0 | 0.00 | 0.00 | 0.00 | 55 | 1018.3 |
| 20260902105539 | 69 | 0 | 0.0 | 0.0 | 0.00 | 0.00 | 0.00 | 53 | 1018.1 |
| 20260902105043 | 69 | 0 | 0.0 | 0.0 | 0.00 | 0.00 | 0.00 | 52 | 1018.1 |
| 20260902104603 | 70 | 0 | 0.0 | 0.0 | 0.00 | 0.00 | 0.00 | 52 | 1018.1 |
| 20260902104045 | 70 | 0 | 0.0 | 0.0 | 0.00 | 0.00 | 0.00 | 50 | 1018.1 |
| 20260902103547 | 70 | 0 | 0.0 | 0.0 | 0.00 | 0.00 | 0.00 | 50 | 1018.0 |
| 20260902103120 | 71 | 0 | 0.0 | 0.0 | 0.00 | 0.00 | 0.00 | 49 | 1018.0 |
| 20260902102613 | 71 | 0 | 0.0 | 0.0 | 0.00 | 0.00 | 0.00 | 48 | 1018.0 |
| 20260902102039 | 71 | 0 | 0.0 | 0.0 | 0.00 | 0.00 | 0.00 | 48 | 1017.9 |
| 20260902101555 | 72 | 0 | 0.0 | 0.0 | 0.00 | 0.00 | 0.00 | 46 | 1017.8 |
| 20260902101039 | 72 | 0 | 0.0 | 0.0 | 0.00 | 0.00 | 0.00 | 46 | 1017.8 |
| 20260902100545 | 72 | 0 | 0.0 | 1.0 | 0.00 | 0.00 | 0.00 | 45 | 1017.7 |
| 20260902100101 | 73 | 0 | 0.0 | 1.0 | 0.00 | 0.00 | 0.00 | 45 | 1017.7 |
| 20260902095544 | 73 | 0 | 0.0 | 1.0 | 0.00 | 0.00 | 0.00 | 44 | 1017.7 |
| 20260902095041 | 73 | 360 | 0.0 | 1.0 | 0.00 | 0.00 | 0.00 | 44 | 1017.6 |
| 20260902094600 | 74 | 360 | 0.0 | 2.0 | 0.00 | 0.00 | 0.00 | 43 | 1017.5 |
| 20260902094043 | 74 | 360 | 0.0 | 2.0 | 0.00 | 0.00 | 0.00 | 42 | 1017.4 |